When you browse on this site, cookies collect data to enhance your experience and personalize the content and advertising you see.
Visit our Privacy Policy to learn more. By continuing to use the site, you agree to this use of cookies and data.
  • In Hungary
  • List of Countries
  • For 7 days
  • Water Temperature
  • Satellite Maps
  • Weather Map
  • News
  • Weather Widgets
  • user-avatar
    Login

    Hourly Weather Santa Coloma de Gramenet

    Today, 20 November, Tuesday

    Time Temperature Precipitation Wind Pressure Humidity
    00:00 +12°C° 0 mm 2 mps 745 mmHg 85%
    01:00 +12°C° 0.1 mm 2 mps 745 mmHg 86%
    02:00 +12°C° 0.1 mm 2 mps 745 mmHg 87%
    03:00 +12°C° 0.1 mm 2 mps 745 mmHg 88%
    04:00 +12°C° 0.2 mm 2 mps 745 mmHg 89%
    05:00 +12°C° 0.2 mm 2 mps 745 mmHg 90%
    06:00 +12°C° 0.2 mm 2 mps 745 mmHg 91%
    07:00 +12°C° 0.3 mm 2 mps 746 mmHg 89%
    08:00 +13°C° 0.3 mm 2 mps 746 mmHg 87%
    09:00 +12°C° 0.3 mm 3 mps 746 mmHg 85%
    10:00 +13°C° 0.3 mm 3 mps 746 mmHg 81%
    11:00 +14°C° 0.3 mm 3 mps 746 mmHg 78%
    12:00 +14°C° 0.3 mm 3 mps 746 mmHg 74%
    13:00 +15°C° 0.3 mm 4 mps 745 mmHg 75%
    14:00 +15°C° 0.3 mm 4 mps 745 mmHg 75%
    15:00 +15°C° 0.3 mm 5 mps 745 mmHg 76%
    16:00 +14°C° 0.2 mm 5 mps 745 mmHg 78%
    17:00 +13°C° 0.2 mm 5 mps 745 mmHg 81%
    18:00 +13°C° 0.2 mm 5 mps 746 mmHg 84%
    19:00 +12°C° 0.5 mm 5 mps 746 mmHg 85%
    20:00 +12°C° 0.5 mm 5 mps 747 mmHg 85%
    21:00 +12°C° 0.5 mm 5 mps 747 mmHg 86%
    22:00 +11°C° 0 mm 4 mps 747 mmHg 86%
    23:00 +11°C° 0 mm 4 mps 748 mmHg 86%

    Tomorrow, 21 November, Wednesday

    Time Temperature Precipitation Wind Pressure Humidity
    00:00 +10°C° 0 mm 4 mps 748 mmHg 86%
    01:00 +10°C° 0 mm 4 mps 749 mmHg 86%
    02:00 +10°C° 0 mm 4 mps 749 mmHg 86%
    03:00 +10°C° 0 mm 3 mps 750 mmHg 86%
    04:00 +9°C° 0 mm 3 mps 750 mmHg 86%
    05:00 +9°C° 0 mm 3 mps 751 mmHg 86%
    06:00 +9°C° 0 mm 3 mps 751 mmHg 86%
    07:00 +10°C° 0 mm 3 mps 752 mmHg 82%
    08:00 +11°C° 0 mm 3 mps 752 mmHg 78%
    09:00 +12°C° 0 mm 3 mps 753 mmHg 74%
    10:00 +13°C° 0 mm 4 mps 753 mmHg 68%
    11:00 +14°C° 0 mm 5 mps 753 mmHg 62%
    12:00 +16°C° 0 mm 5 mps 753 mmHg 56%
    13:00 +16°C° 0 mm 5 mps 753 mmHg 56%
    14:00 +16°C° 0 mm 5 mps 753 mmHg 56%
    15:00 +16°C° 0 mm 5 mps 753 mmHg 56%
    16:00 +15°C° 0 mm 4 mps 754 mmHg 62%
    17:00 +13°C° 0 mm 4 mps 755 mmHg 67%
    18:00 +12°C° 0 mm 3 mps 755 mmHg 72%
    19:00 +12°C° 0 mm 3 mps 756 mmHg 73%
    20:00 +11°C° 0 mm 3 mps 756 mmHg 74%
    21:00 +12°C° 0 mm 2 mps 756 mmHg 74%
    22:00 +12°C° 0 mm 2 mps 756 mmHg 73%
    23:00 +10°C° 0 mm 2 mps 756 mmHg 72%

    Day after tomorrow, 22 November, Thursday

    Time Temperature Precipitation Wind Pressure Humidity
    00:00 +10°C° 0 mm 2 mps 757 mmHg 71%
    01:00 +10°C° 0 mm 2 mps 757 mmHg 69%
    02:00 +10°C° 0 mm 2 mps 757 mmHg 68%
    03:00 +10°C° 0 mm 2 mps 757 mmHg 66%
    04:00 +10°C° 0 mm 2 mps 757 mmHg 66%
    05:00 +10°C° 0 mm 2 mps 757 mmHg 66%
    06:00 +9°C° 0 mm 2 mps 757 mmHg 66%
    07:00 +12°C° 0 mm 2 mps 758 mmHg 63%
    08:00 +13°C° 0 mm 2 mps 758 mmHg 60%
    09:00 +14°C° 0 mm 2 mps 758 mmHg 57%
    10:00 +15°C° 0 mm 2 mps 758 mmHg 53%
    11:00 +17°C° 0 mm 2 mps 758 mmHg 49%
    12:00 +18°C° 0 mm 2 mps 758 mmHg 45%
    13:00 +18°C° 0 mm 2 mps 758 mmHg 47%
    14:00 +18°C° 0 mm 2 mps 758 mmHg 48%
    15:00 +17°C° 0 mm 2 mps 758 mmHg 49%
    16:00 +16°C° 0 mm 2 mps 758 mmHg 53%
    17:00 +15°C° 0 mm 2 mps 758 mmHg 57%
    18:00 +14°C° 0 mm 1 mps 758 mmHg 60%
    19:00 +14°C° 0 mm 1 mps 758 mmHg 61%
    20:00 +13°C° 0 mm 1 mps 759 mmHg 61%
    21:00 +13°C° 0 mm 1 mps 759 mmHg 61%
    22:00 +13°C° 0 mm 1 mps 759 mmHg 62%
    23:00 +12°C° 0 mm 1 mps 759 mmHg 62%

    23 November, Friday

    Time Temperature Precipitation Wind Pressure Humidity
    00:00 +12°C° 0 mm 1 mps 759 mmHg 62%
    01:00 +12°C° 0 mm 1 mps 758 mmHg 61%
    02:00 +13°C° 0 mm 1 mps 758 mmHg 60%
    03:00 +13°C° 0 mm 2 mps 758 mmHg 59%
    04:00 +13°C° 0.1 mm 2 mps 758 mmHg 61%
    05:00 +13°C° 0.1 mm 2 mps 758 mmHg 62%
    06:00 +13°C° 0.1 mm 2 mps 757 mmHg 64%
    07:00 +12°C° 0.1 mm 3 mps 757 mmHg 64%
    08:00 +13°C° 0.1 mm 3 mps 757 mmHg 64%
    09:00 +13°C° 0.1 mm 3 mps 757 mmHg 65%
    10:00 +14°C° 0.1 mm 3 mps 757 mmHg 68%
    11:00 +14°C° 0.1 mm 3 mps 756 mmHg 71%
    12:00 +16°C° 0.1 mm 3 mps 755 mmHg 73%
    13:00 +16°C° 0.2 mm 3 mps 755 mmHg 76%
    14:00 +16°C° 0.2 mm 3 mps 754 mmHg 79%
    15:00 +16°C° 0.2 mm 3 mps 753 mmHg 82%
    16:00 +14°C° 0.4 mm 3 mps 753 mmHg 84%
    17:00 +14°C° 0.4 mm 3 mps 753 mmHg 87%
    18:00 +14°C° 0.4 mm 3 mps 753 mmHg 89%
    19:00 +14°C° 0.4 mm 4 mps 753 mmHg 88%
    20:00 +14°C° 0.4 mm 6 mps 753 mmHg 87%
    21:00 +12°C° 0.4 mm 7 mps 754 mmHg 86%
    22:00 +12°C° 0 mm 7 mps 754 mmHg 85%
    23:00 +11°C° 0 mm 6 mps 754 mmHg 84%

    24 November, Saturday

    Time Temperature Precipitation Wind Pressure Humidity
    00:00 +10°C° 0 mm 6 mps 755 mmHg 83%
    01:00 +9°C° 0 mm 6 mps 755 mmHg 83%
    02:00 +9°C° 0 mm 5 mps 755 mmHg 83%
    03:00 +8°C° 0 mm 5 mps 755 mmHg 83%
    04:00 +8°C° 0 mm 4 mps 756 mmHg 82%
    05:00 +8°C° 0 mm 4 mps 756 mmHg 81%
    06:00 +9°C° 0 mm 3 mps 757 mmHg 81%
    07:00 +10°C° 0 mm 3 mps 757 mmHg 77%
    08:00 +11°C° 0 mm 3 mps 757 mmHg 74%
    09:00 +12°C° 0 mm 3 mps 758 mmHg 70%
    10:00 +13°C° 0 mm 3 mps 758 mmHg 65%
    11:00 +14°C° 0 mm 3 mps 758 mmHg 60%
    12:00 +16°C° 0 mm 3 mps 757 mmHg 55%
    13:00 +16°C° 0 mm 3 mps 757 mmHg 55%
    14:00 +16°C° 0 mm 3 mps 757 mmHg 55%
    15:00 +16°C° 0 mm 3 mps 757 mmHg 54%
    16:00 +13°C° 0 mm 3 mps 757 mmHg 60%
    17:00 +12°C° 0 mm 3 mps 757 mmHg 66%
    18:00 +11°C° 0 mm 3 mps 757 mmHg 71%
    19:00 +11°C° 0 mm 3 mps 758 mmHg 72%
    20:00 +11°C° 0 mm 3 mps 758 mmHg 72%
    21:00 +10°C° 0 mm 3 mps 758 mmHg 72%
    22:00 +10°C° 0 mm 3 mps 758 mmHg 73%
    23:00 +10°C° 0 mm 2 mps 758 mmHg 73%

    25 November, Sunday

    Time Temperature Precipitation Wind Pressure Humidity
    00:00 +9°C° 0 mm 2 mps 757 mmHg 73%
    01:00 +9°C° 0 mm 2 mps 757 mmHg 73%
    02:00 +9°C° 0 mm 2 mps 757 mmHg 72%
    03:00 +9°C° 0 mm 2 mps 756 mmHg 71%
    04:00 +8°C° 0 mm 2 mps 756 mmHg 70%
    05:00 +8°C° 0 mm 2 mps 756 mmHg 68%
    06:00 +8°C° 0 mm 2 mps 756 mmHg 67%
    07:00 +9°C° 0 mm 2 mps 756 mmHg 63%
    08:00 +10°C° 0 mm 2 mps 756 mmHg 59%
    09:00 +12°C° 0 mm 2 mps 755 mmHg 55%
    10:00 +14°C° 0 mm 2 mps 755 mmHg 52%
    11:00 +14°C° 0 mm 3 mps 754 mmHg 49%
    12:00 +17°C° 0 mm 3 mps 754 mmHg 46%
    13:00 +15°C° 0 mm 4 mps 753 mmHg 48%
    14:00 +15°C° 0 mm 5 mps 753 mmHg 49%
    15:00 +15°C° 0 mm 5 mps 752 mmHg 50%
    16:00 +14°C° 0 mm 5 mps 752 mmHg 54%
    17:00 +13°C° 0 mm 5 mps 752 mmHg 59%
    18:00 +10°C° 0 mm 5 mps 752 mmHg 63%
    19:00 +10°C° 0 mm 5 mps 752 mmHg 65%
    20:00 +10°C° 0 mm 5 mps 752 mmHg 67%
    21:00 +9°C° 0 mm 5 mps 752 mmHg 69%
    22:00 +9°C° 0 mm 5 mps 752 mmHg 70%
    23:00 +9°C° 0 mm 5 mps 752 mmHg 71%
    Show more